User: anonymous   Login
Location: Rochester
(43.1610°N, 77.6109°W)
Time: 11:22:51
(UTC-04:00)
Language:

Oscar 11 - Orbit

View from above orbital plane
View from above orbital plane
View from above satellite
View from above satellite

Ground track
Ground track

The orbit data is extracted from the following two-line orbital elements,

1 14781U 84021B   21291.23540144  .00000300  00000-0  42715-4 0  9990
2 14781  97.6007 285.0779 0009485  45.3670 314.8316 14.83343643 25137
Epoch (UTC): 18 October 2021 05:38:58
Eccentricity: 0.0009485
inclination: 97.6007°
perigee height: 612 km
apogee height: 625 km
right ascension of ascending node: 285.0779°
argument of perigee: 45.3670°
revolutions per day: 14.83343643
mean anomaly at epoch: 314.8316°
orbit number at epoch: 2513

The dashed part of the orbit path shows where the satellite is in the earth's shadow,  

DLR